CW6344 Weather Reports


time (UTC)temp
C
wind
direction
speed
KPH
gust
KPH
rain 1hr
cm
rain 24hr
cm
rain mn
cm
humidity
%
barometer
mb
20260901023441 25 13 0.0 0.0 0.00 0.00 0.00 91 1017.7
20260901022441 25 13 0.0 0.0 0.00 0.00 0.00 91 1017.8
20260901021441 25 13 0.0 0.0 0.00 0.00 0.00 91 1017.8
20260901020441 25 13 0.0 0.0 0.00 0.00 0.00 91 1017.8
20260901015441 25 13 0.0 0.0 0.00 0.00 0.00 91 1018.0
20260901014441 25 13 0.0 0.0 0.00 0.00 0.00 91 1018.0
20260901013441 25 13 0.0 0.0 0.00 0.00 0.00 91 1017.9
20260901012511 25 13 0.0 0.0 0.00 0.00 0.00 90 1017.9
20260901011441 25 13 0.0 0.0 0.00 0.00 0.00 90 1017.8
20260901010441 25 13 0.0 0.0 0.00 0.00 0.00 90 1017.8
20260901005441 25 13 0.0 0.0 0.00 0.00 0.00 90 1017.9
20260901004441 25 13 0.0 0.0 0.00 0.00 0.00 90 1017.9
20260901003441 25 13 0.0 0.0 0.00 0.00 0.00 90 1017.9
20260901002441 25 13 0.0 0.0 0.00 0.00 0.00 90 1017.9
20260901001441 25 13 0.0 0.0 0.00 0.00 0.00 89 1017.9
20260901000443 26 13 0.0 0.0 0.00 0.00 0.00 89 1017.8
20260831234441 26 13 0.0 0.0 0.00 0.00 0.00 88 1017.7
20260831233441 26 13 0.0 0.0 0.00 0.00 0.00 87 1017.8
20260831232441 26 13 0.0 0.0 0.00 0.00 0.00 87 1017.9
20260831231441 27 13 0.0 0.0 0.00 0.00 0.00 87 1017.8
20260831230441 27 13 0.0 0.0 0.00 0.00 0.00 86 1017.9
20260831225441 27 13 0.0 0.0 0.00 0.00 0.00 86 1017.7
20260831224441 27 13 0.0 0.0 0.00 0.00 0.00 86 1017.7
20260831223441 27 13 0.0 0.0 0.00 0.00 0.00 86 1017.9
20260831222511 27 13 0.0 0.0 0.00 0.00 0.00 86 1018.0
20260831221441 27 13 0.0 0.0 0.00 0.00 0.00 86 1018.0
20260831220441 27 13 0.0 0.0 0.00 0.00 0.00 85 1018.0
20260831214441 28 13 0.0 0.0 0.00 0.00 0.00 83 1018.1
20260831213441 28 13 0.0 0.0 0.00 0.00 0.00 83 1018.1
20260831212441 28 13 0.0 0.0 0.00 0.00 0.00 83 1018.1
20260831210441 28 13 0.0 0.0 0.00 0.00 0.00 81 1017.9
20260831204441 28 13 0.0 0.0 0.00 0.00 0.00 83 1017.6
20260831202442 28 13 0.0 0.0 0.00 0.00 0.00 83 1017.7
20260831201441 28 13 0.0 0.0 0.00 0.00 0.00 82 1017.8
20260831200441 28 13 0.0 1.6 0.00 0.00 0.00 81 1018.0
20260831195441 29 13 0.0 0.0 0.00 0.00 0.00 78 1017.8
20260831194442 30 57 0.0 0.0 0.00 0.00 0.00 79 1017.8
20260831193442 30 61 1.6 3.2 0.00 0.00 0.00 78 1017.9
20260831192442 30 61 0.0 1.6 0.00 0.00 0.00 78 1018.1
20260831191442 29 75 0.0 3.2 0.00 0.00 0.00 78 1018.2
20260831190442 29 98 0.0 3.2 0.00 0.00 0.00 78 1018.1
20260831185442 29 57 0.0 1.6 0.00 0.00 0.00 78 1018.1
20260831184511 28 57 1.6 4.8 0.00 0.00 0.00 80 1018.3
20260831182442 29 28 0.0 0.0 0.00 0.00 0.00 76 1018.2
20260831181442 30 26 0.0 1.6 0.00 0.00 0.00 75 1018.3
20260831180442 30 26 1.6 1.6 0.00 0.00 0.00 73 1018.4
20260831175442 30 24 0.0 3.2 0.00 0.00 0.00 76 1018.4
20260831174442 30 71 1.6 1.6 0.00 0.00 0.00 75 1018.4
20260831173442 30 306 0.0 0.0 0.00 0.00 0.00 75 1018.5
20260831172512 30 303 0.0 0.0 0.00 0.00 0.00 76 1018.5
20260831171442 30 302 0.0 1.6 0.00 0.00 0.00 77 1018.8
20260831170442 30 164 0.0 0.0 0.00 0.00 0.00 75 1018.7
20260831165442 29 58 0.0 1.6 0.00 0.00 0.00 76 1018.8
20260831164442 29 48 0.0 0.0 0.00 0.00 0.00 78 1018.9
20260831163441 29 49 0.0 1.6 0.00 0.00 0.00 78 1018.9
20260831162442 28 216 3.2 3.2 0.00 0.00 0.00 78 1019.0
20260831160442 28 80 0.0 0.0 0.00 0.00 0.00 79 1019.0
20260831155442 28 74 0.0 0.0 0.00 0.00 0.00 79 1019.1
20260831154442 28 74 1.6 1.6 0.00 0.00 0.00 79 1019.1
20260831153442 28 74 0.0 0.0 0.00 0.00 0.00 78 1019.0
20260831152442 28 71 1.6 1.6 0.00 0.00 0.00 79 1018.9
20260831150512 27 102 0.0 3.2 0.00 0.00 0.00 80 1019.0
20260831145442 27 32 0.0 3.2 0.00 0.00 0.00 81 1019.0
20260831144542 27 213 0.0 0.0 0.00 0.00 0.00 81 1019.1
20260831143442 27 213 0.0 0.0 0.00 0.00 0.00 81 1019.1
20260831142442 27 300 0.0 0.0 0.00 0.00 0.00 82 1019.0
20260831140442 27 300 0.0 0.0 0.00 0.00 0.00 83 1019.0
20260831135442 26 201 0.0 0.0 0.00 0.00 0.00 83 1019.0
20260831134442 26 281 0.0 0.0 0.00 0.00 0.00 82 1019.0
20260831133442 26 46 0.0 0.0 0.00 0.00 0.00 84 1019.0
20260831132442 26 44 0.0 0.0 0.00 0.00 0.00 84 1019.0
20260831130442 26 9 0.0 0.0 0.00 0.00 0.00 84 1019.0
20260831125442 25 9 0.0 0.0 0.00 0.00 0.00 86 1019.0
20260831124512 25 9 0.0 0.0 0.00 0.00 0.00 88 1019.0
20260831123442 25 9 0.0 0.0 0.00 0.00 0.00 90 1018.9
20260831122442 24 10 0.0 1.6 0.00 0.00 0.00 91 1018.8
20260831121442 24 10 0.0 0.0 0.00 0.00 0.00 92 1018.9
20260831120542 23 10 0.0 0.0 0.00 0.00 0.00 93 1018.8
20260831115442 23 10 0.0 0.0 0.00 0.00 0.00 93 1018.9
20260831114442 23 10 0.0 0.0 0.00 0.00 0.00 93 1018.8
20260831112442 23 10 0.0 0.0 0.00 0.00 0.00 93 1018.6
20260831110442 23 331 0.0 0.0 0.00 0.00 0.00 93 1018.2
20260831105442 23 223 0.0 0.0 0.00 0.00 0.00 93 1018.1
20260831104442 23 223 0.0 0.0 0.00 0.00 0.00 92 1018.1
20260831102512 23 223 0.0 0.0 0.00 0.00 0.00 92 1018.2
20260831101442 23 223 0.0 0.0 0.00 0.00 0.00 92 1018.2
20260831100442 23 223 0.0 0.0 0.00 0.00 0.00 92 1018.0
20260831095442 23 223 0.0 0.0 0.00 0.00 0.00 92 1018.0
20260831094442 23 223 0.0 0.0 0.00 0.00 0.00 92 1018.0
20260831093442 23 223 0.0 0.0 0.00 0.00 0.00 92 1018.0
20260831092512 23 223 0.0 0.0 0.00 0.00 0.00 92 1018.0
20260831091442 23 223 0.0 0.0 0.00 0.00 0.00 91 1017.9
20260831085442 23 223 0.0 0.0 0.00 0.00 0.00 91 1018.0
20260831084512 23 223 0.0 0.0 0.00 0.00 0.00 91 1018.0
20260831082512 23 223 0.0 0.0 0.00 0.00 0.00 91 1017.9
20260831081442 24 223 0.0 0.0 0.00 0.00 0.00 91 1018.0
20260831080442 24 223 0.0 0.0 0.00 0.00 0.00 90 1018.0
20260831075442 24 223 0.0 0.0 0.00 0.00 0.00 90 1017.9
20260831074442 24 223 0.0 0.0 0.00 0.00 0.00 90 1018.0
20260831073442 24 223 0.0 0.0 0.00 0.00 0.00 90 1017.9
20260831072442 24 223 0.0 0.0 0.00 0.00 0.00 90 1018.1
20260831071442 24 223 0.0 0.0 0.00 0.00 0.00 89 1018.1
20260831070612 24 223 0.0 0.0 0.00 0.00 0.00 89 1018.1
20260831065442 24 223 0.0 0.0 0.00 0.00 0.00 89 1018.0
20260831064442 25 223 0.0 0.0 0.00 0.00 0.00 89 1018.1
20260831062442 25 223 0.0 3.2 0.00 0.00 0.00 89 1018.0
20260831060442 25 217 0.0 0.0 0.00 0.00 0.00 89 1017.9
20260831055442 25 213 0.0 0.0 0.00 0.00 0.00 89 1018.1
20260831054442 25 201 3.2 4.8 0.00 0.00 0.00 89 1018.1
20260831053442 25 230 0.0 1.6 0.00 0.00 0.00 89 1018.2
20260831052512 25 223 0.0 0.0 0.00 0.00 0.00 89 1018.2
20260831051442 25 201 0.0 0.0 0.00 0.00 0.00 89 1018.3
20260831050442 25 257 0.0 0.0 0.00 0.00 0.00 88 1018.3
20260831044442 25 238 0.0 0.0 0.00 0.00 0.00 88 1018.2
20260831043442 25 238 0.0 3.2 0.00 0.00 0.00 88 1018.2
20260831042442 25 238 0.0 0.0 0.00 0.00 0.00 87 1018.3
20260831041442 25 238 0.0 0.0 0.00 0.00 0.00 87 1018.3
20260831040442 25 238 0.0 0.0 0.00 0.00 0.00 86 1018.5
20260831035443 25 238 0.0 0.0 0.00 0.00 0.00 86 1018.6
20260831034442 25 238 0.0 0.0 0.00 0.00 0.00 85 1018.6
20260831033442 25 238 0.0 0.0 0.00 0.00 0.00 85 1018.8
20260831032443 25 238 0.0 0.0 0.00 0.00 0.00 85 1019.0
20260831031443 25 238 3.2 4.8 0.00 0.00 0.00 85 1019.0
20260831030513 25 256 0.0 1.6 0.00 0.00 0.00 85 1018.9
20260831025443 25 256 0.0 1.6 0.00 0.00 0.00 84 1019.0
20260831024443 26 256 0.0 0.0 0.00 0.00 0.00 84 1019.1